Date String (YYYY-MM-DD hh:mm:ss) UTC,Instrument flags,Ambient pressure (hPa),Sample flow (lpm),Bypass flow (lpm),Sample temperature (°C),Ambient temperature (°C),ASC tube jacket temperature (°C),LED temperature (°C),Box temperature (°C),Sample RH (%),Span deviation,Mass concentration (μg/m³),Mass concentration (μg/m³),Mass concentration (μg/m³)
DateTimeUTC,F1_M11,P_M11,Q1_M11,Q2_M11,T1_M11,T2_M11,T3_M11,T4_M11,T5_M11,U1_M11,ZSPAN_M11,X0_M11,X2_M11,X1_M11
2022-01-13 01:00:00,,0830.8,4.99,0.00,26.7,25.8,00.0,35.7,28.4,11.3,0000.0,0004.63,0000.02,0000.00
2022-01-13 01:01:00,,0830.8,5.00,0.00,26.7,25.8,00.0,35.7,28.4,11.3,0000.0,0004.64,0000.02,0000.00
2022-01-13 01:02:00,,0830.8,5.00,0.00,26.7,25.8,00.0,35.7,28.4,11.4,0000.0,0004.66,0000.03,0000.00
2022-01-13 01:03:00,,0830.7,5.02,0.00,26.7,25.8,00.0,35.7,28.4,11.6,0000.0,0004.34,0000.03,0000.00
2022-01-13 01:04:00,,0830.7,4.99,0.00,26.7,25.7,00.0,35.7,28.4,11.6,0000.0,0003.27,0000.03,0000.00
2022-01-13 01:05:00,,0830.7,5.01,0.00,26.7,25.7,00.0,35.7,28.4,11.4,0000.0,0003.27,0000.03,0000.00
2022-01-13 01:06:00,,0830.8,5.00,0.00,26.7,25.7,00.0,35.7,28.4,11.3,0000.0,0003.12,0000.03,0000.00
2022-01-13 01:07:00,,0830.8,5.00,0.00,26.6,25.7,00.0,35.7,28.4,11.3,0000.0,0000.51,0000.02,0000.00
2022-01-13 01:08:00,,0830.8,4.99,0.00,26.6,25.7,00.0,35.7,28.3,11.0,0000.0,0000.54,0000.03,0000.00
2022-01-13 01:09:00,,0830.9,5.00,0.00,26.6,25.7,00.0,35.7,28.4,11.0,0000.0,0001.08,0000.03,0000.00
2022-01-13 01:10:00,,0830.8,4.99,0.00,26.6,25.7,00.0,35.7,28.3,11.1,0000.0,0001.07,0000.03,0000.00
2022-01-13 01:11:00,,0830.9,5.01,0.00,26.6,25.7,00.0,35.7,28.3,11.1,0000.0,0001.07,0000.03,0000.00
2022-01-13 01:12:00,,0830.8,4.99,0.00,26.6,25.7,00.0,35.7,28.3,10.9,0000.0,0001.06,0000.02,0000.00
2022-01-13 01:13:00,,0830.9,5.00,0.00,26.6,25.7,00.0,35.7,28.3,11.0,0000.0,0001.06,0000.01,0000.00
2022-01-13 01:14:00,,0831.0,4.99,0.00,26.6,25.7,00.0,35.7,28.3,11.1,0000.0,0001.06,0000.01,0000.00
2022-01-13 01:15:00,,0831.0,5.02,0.00,26.6,25.7,00.0,35.7,28.3,11.3,0000.0,0001.06,0000.01,0000.00
2022-01-13 01:16:00,,0831.0,4.98,0.00,26.6,25.7,00.0,35.7,28.3,11.2,0000.0,0001.06,0000.01,0000.00
2022-01-13 01:17:00,,0831.0,5.00,0.00,26.6,25.7,00.0,35.6,28.3,11.3,0000.0,0001.06,0000.01,0000.00
2022-01-13 01:18:00,,0831.0,5.01,0.00,26.6,25.7,00.0,35.6,28.3,11.1,0000.0,0001.06,0000.01,0000.00
2022-01-13 01:19:00,,0830.9,4.98,0.00,26.6,25.7,00.0,35.6,28.3,11.1,0000.0,0000.50,0000.01,0000.00
2022-01-13 01:20:00,,0831.0,5.01,0.00,26.6,25.7,00.0,35.6,28.3,11.1,0000.0,0000.02,0000.01,0000.00
2022-01-13 01:21:00,,0831.0,5.01,0.00,26.6,25.7,00.0,35.6,28.3,10.9,0000.0,0000.04,0000.02,0000.00
2022-01-13 01:22:00,,0831.0,4.98,0.00,26.6,25.7,00.0,35.6,28.3,10.6,0000.0,0000.04,0000.02,0000.00
2022-01-13 01:23:00,,0830.9,5.00,0.00,26.6,25.7,00.0,35.6,28.3,11.0,0000.0,0000.56,0000.02,0000.01
2022-01-13 01:24:00,,0831.0,5.01,0.00,26.6,25.7,00.0,35.6,28.3,10.9,0000.0,0000.80,0000.03,0000.01
2022-01-13 01:25:00,,0831.0,4.99,0.00,26.6,25.8,00.0,35.6,28.3,11.0,0000.0,0000.80,0000.03,0000.01
2022-01-13 01:26:00,,0831.0,5.01,0.00,26.6,25.8,00.0,35.6,28.3,11.0,0000.0,0000.80,0000.03,0000.00
2022-01-13 01:27:00,,0831.0,5.01,0.00,26.6,25.8,00.0,35.6,28.3,10.8,0000.0,0000.80,0000.03,0000.00
2022-01-13 01:28:00,,0830.9,4.99,0.00,26.6,25.8,00.0,35.6,28.3,10.7,0000.0,0000.80,0000.03,0000.00
2022-01-13 01:29:00,,0831.0,5.01,0.00,26.6,25.8,00.0,35.6,28.3,10.6,0000.0,0000.80,0000.03,0000.01
2022-01-13 01:30:00,,0831.0,4.99,0.00,26.6,25.8,00.0,35.6,28.3,10.6,0000.0,0000.80,0000.03,0000.01
2022-01-13 01:31:00,,0831.0,5.02,0.00,26.6,25.8,00.0,35.6,28.3,10.6,0000.0,0000.80,0000.03,0000.01
2022-01-13 01:32:00,,0831.0,4.99,0.00,26.5,25.7,00.0,35.6,28.3,10.6,0000.0,0000.78,0000.02,0000.00
2022-01-13 01:33:00,,0831.1,5.01,0.00,26.5,25.6,00.0,35.6,28.2,10.5,0000.0,0000.80,0000.02,0000.00
2022-01-13 01:34:00,,0831.2,4.99,0.00,26.5,25.6,00.0,35.6,28.2,10.5,0000.0,0000.44,0000.02,0000.00
2022-01-13 01:35:00,,0831.1,5.01,0.00,26.5,25.6,00.0,35.5,28.2,10.4,0000.0,0000.33,0000.02,0000.00
2022-01-13 01:36:00,,0831.1,4.98,0.00,26.5,25.6,00.0,35.5,28.2,10.4,0000.0,0000.71,0000.03,0000.00
2022-01-13 01:37:00,,0831.1,5.01,0.00,26.5,25.6,00.0,35.5,28.2,10.3,0000.0,0001.22,0000.03,0000.00
2022-01-13 01:38:00,,0831.2,4.99,0.00,26.5,25.6,00.0,35.5,28.2,10.2,0000.0,0001.22,0000.03,0000.00
2022-01-13 01:39:00,,0831.2,5.01,0.00,26.5,25.7,00.0,35.5,28.2,10.3,0000.0,0001.22,0000.03,0000.00
2022-01-13 01:40:00,,0831.1,4.99,0.00,26.5,25.7,00.0,35.5,28.3,10.4,0000.0,0001.22,0000.03,0000.00
2022-01-13 01:41:00,,0831.1,5.01,0.00,26.5,25.7,00.0,35.5,28.3,10.4,0000.0,0001.23,0000.04,0000.00
2022-01-13 01:42:00,,0831.2,4.98,0.00,26.5,25.6,00.0,35.5,28.2,10.5,0000.0,0001.25,0000.05,0000.00
2022-01-13 01:43:00,,0831.1,5.02,0.00,26.5,25.6,00.0,35.5,28.2,10.4,0000.0,0001.25,0000.05,0000.00
2022-01-13 01:44:00,,0831.1,4.99,0.00,26.5,25.7,00.0,35.5,28.2,10.4,0000.0,0001.23,0000.05,0000.00
2022-01-13 01:45:00,,0831.1,5.01,0.00,26.5,25.7,00.0,35.5,28.2,10.5,0000.0,0001.14,0000.04,0000.00
2022-01-13 01:46:00,,0831.2,5.00,0.00,26.5,25.7,00.0,35.5,28.2,10.6,0000.0,0000.89,0000.04,0000.00
2022-01-13 01:47:00,,0831.3,5.00,0.00,26.5,25.7,00.0,35.5,28.3,10.9,0000.0,0000.50,0000.03,0000.00
2022-01-13 01:48:00,,0831.4,5.00,0.00,26.5,25.7,00.0,35.5,28.3,10.8,0000.0,0000.04,0000.02,0000.00
2022-01-13 01:49:00,,0831.3,5.01,0.00,26.5,25.7,00.0,35.5,28.3,10.8,0000.0,0000.04,0000.02,0000.00
2022-01-13 01:50:00,,0831.4,4.99,0.00,26.5,25.8,00.0,35.5,28.3,10.7,0000.0,0000.04,0000.02,0000.00
2022-01-13 01:51:00,,0831.4,5.01,0.00,26.5,25.8,00.0,35.5,28.3,10.7,0000.0,0000.04,0000.02,0000.00
2022-01-13 01:52:00,,0831.4,4.99,0.00,26.5,25.8,00.0,35.5,28.3,10.6,0000.0,0000.03,0000.02,0000.00
2022-01-13 01:53:00,,0831.4,4.99,0.00,26.6,25.8,00.0,35.5,28.3,10.4,0000.0,0000.01,0000.01,0000.00
2022-01-13 01:54:00,,0831.4,5.02,0.00,26.6,25.8,00.0,35.5,28.3,10.6,0000.0,0000.01,0000.01,0000.00
2022-01-13 01:55:00,,0831.4,4.99,0.00,26.6,25.8,00.0,35.5,28.3,10.5,0000.0,0000.01,0000.00,0000.00
2022-01-13 01:56:00,,0831.4,5.01,0.00,26.6,25.8,00.0,35.5,28.3,10.4,0000.0,0000.06,0000.02,0000.00
2022-01-13 01:57:00,,0831.4,5.01,0.00,26.6,25.8,00.0,35.5,28.4,10.5,0000.0,0001.06,0000.02,0000.00
2022-01-13 01:58:00,,0831.4,4.98,0.00,26.6,25.8,00.0,35.5,28.4,10.5,0000.0,0001.06,0000.02,0000.00
2022-01-13 01:59:00,,0831.4,5.02,0.00,26.6,25.8,00.0,35.5,28.4,10.3,0000.0,0001.06,0000.02,0000.00
